STARLINK-34951, 65293

Orbit data source: Space-Track

STARLINK-34951, 65293 is a payload satellite owned by SpaceX/Seattle (US) in SSO that was launched on Fri, 22 Aug 2025 UTC via an FALCON 9 launch vehicle from the Air Force Western Test Range (AFWTR). Payload-class satellites include a variety of spacecraft equipped with specific instruments for various scientific and technological missions. These include communications satellites like Starlink; space stations such as the ISS; scientific satellites like the Hubble; Earth observation satellites from companies like Planet Labs, Umbra, and HawkEye 360; GPS; miniature CubeSats for education and research; and military/defense satellites.

Loading next visibility...
Identifier
65293, 2025-184W
Orbit
SSO
Country
Flag of USUS
Related business
Manufacturer
SpaceX/Seattle
Mission
Operational Commercial Communications
Bus & Motor
STARLINK V2MO, Unknown motor
Mass
575 kg wet, ~530 kg dry
Launch date (UTC)
2025-08-22 (10 months ago)
Launch vehicle
FALCON 9
Launch site
Air Force Western Test Range (AFWTR)
Object type
Payload
Rocket body
Debris
Shape & HBR
Box + 2 Pan, 17.7 m
Radar Cross Section
36.964 m², Large (>1 m²)

Expand to show TLE details & history
Last TLE update: 14 hours ago

TLE from 14 hours ago
0 STARLINK-34951
1 65293U 25184W   26171.39271926  .00005552  00000-0  38841-3 0  9995
2 65293  97.3364 222.7888 0001823 114.5012 245.6405 15.05651101 46757
Epoch: 2026-06-20T09:25Z
TLE epoch observation values (Epoch: 2026-06-20T09:25:30.944Z)
Latitude
-0.00007°
Longitude
172.80188°
Altitude
553.102 km
Speed
7.585 km/s
True Right ascension
14h 51m 09s
True Declination
0° 00' 00"
Sunlit
Object was in full shadow at epoch
Visualization orbit readout
Latitude
Unknown
Longitude
Unknown
Altitude
Unknown
Speed
Unknown
Apparent Right ascension
Unknown
Apparent Declination
Unknown
Sunlit
N/A
Visualization observer readout
Local Sidereal Time
10:18:02
Azimuth
Unknown
Elevation
Unknown
Doppler factor
Unknown
Orbital elements
Apogee altitude
547.752 km
Perigee altitude
545.227 km
Semi-major axis
6,924.627 km
Eccentricity
0.00018
Inclination
97.3364°
RAAN
222.7888°
Arg. of periapsis
114.5012°
True anomaly
245.62147°
Mean anomaly
245.6405°
Eccentric anomaly
245.63099°
Mean motion
3.76659 °/min
Orbital period
95.58 mins
BSTAR
0.00038841
Loading maneuver chart data...
Computing Atmospheric mass density...
Loading historical data...
Loading historical data...
Loading historical data...
Loading historical data...
Loading historical data...
Loading historical data...
Loading historical data...

Documentation

Showing up to 5 results
|